When you browse on this site, cookies collect data to enhance your experience and personalize the content and advertising you see.
Visit our Privacy Policy to learn more. By continuing to use the site, you agree to this use of cookies and data.
  • In United Kingdom
  • List of Countries
  • For 7 days
  • Water Temperature
  • Satellite Maps
  • Weather Map
  • Weather Widgets
  • user-avatar
    Login

    Hourly Weather Pylypenky

    Today, 21 June, Friday

    Time Temperature Precipitation Wind Pressure Humidity
    00:00 +21°C° 0 mm 3 mps 753 mmHg 74%
    01:00 +20°C° 0 mm 3 mps 753 mmHg 76%
    02:00 +20°C° 0 mm 3 mps 753 mmHg 79%
    03:00 +20°C° 0 mm 3 mps 754 mmHg 79%
    04:00 +20°C° 0 mm 3 mps 754 mmHg 80%
    05:00 +20°C° 0 mm 3 mps 754 mmHg 81%
    06:00 +22°C° 0 mm 3 mps 754 mmHg 76%
    07:00 +24°C° 0 mm 3 mps 754 mmHg 70%
    08:00 +26°C° 0 mm 3 mps 754 mmHg 64%
    09:00 +28°C° 0 mm 4 mps 754 mmHg 57%
    10:00 +29°C° 0 mm 4 mps 754 mmHg 49%
    11:00 +32°C° 0 mm 4 mps 754 mmHg 41%
    12:00 +31°C° 0 mm 3 mps 754 mmHg 40%
    13:00 +33°C° 0 mm 3 mps 754 mmHg 38%
    14:00 +33°C° 0 mm 3 mps 754 mmHg 37%
    15:00 +33°C° 0 mm 3 mps 753 mmHg 40%
    16:00 +31°C° 0 mm 3 mps 753 mmHg 43%
    17:00 +31°C° 0 mm 3 mps 753 mmHg 46%
    18:00 +29°C° 0 mm 3 mps 753 mmHg 51%
    19:00 +27°C° 0 mm 3 mps 753 mmHg 56%
    20:00 +25°C° 0 mm 3 mps 753 mmHg 61%
    21:00 +25°C° 0 mm 3 mps 754 mmHg 63%
    22:00 +24°C° 0 mm 3 mps 754 mmHg 65%
    23:00 +22°C° 0 mm 3 mps 754 mmHg 66%

    Tomorrow, 22 June, Saturday

    Time Temperature Precipitation Wind Pressure Humidity
    00:00 +23°C° 0 mm 2 mps 754 mmHg 66%
    01:00 +21°C° 0 mm 2 mps 754 mmHg 66%
    02:00 +21°C° 0 mm 2 mps 754 mmHg 65%
    03:00 +21°C° 0 mm 2 mps 754 mmHg 68%
    04:00 +21°C° 0 mm 2 mps 754 mmHg 70%
    05:00 +21°C° 0 mm 2 mps 754 mmHg 73%
    06:00 +24°C° 0 mm 2 mps 754 mmHg 68%
    07:00 +26°C° 0 mm 3 mps 755 mmHg 63%
    08:00 +28°C° 0 mm 3 mps 755 mmHg 58%
    09:00 +29°C° 0 mm 3 mps 755 mmHg 53%
    10:00 +30°C° 0 mm 2 mps 755 mmHg 48%
    11:00 +31°C° 0 mm 2 mps 755 mmHg 43%
    12:00 +32°C° 0 mm 2 mps 755 mmHg 43%
    13:00 +33°C° 0 mm 3 mps 755 mmHg 43%
    14:00 +33°C° 0 mm 3 mps 754 mmHg 43%
    15:00 +33°C° 0 mm 3 mps 754 mmHg 44%
    16:00 +33°C° 0 mm 3 mps 754 mmHg 45%
    17:00 +31°C° 0 mm 2 mps 754 mmHg 46%
    18:00 +30°C° 0 mm 3 mps 754 mmHg 49%
    19:00 +28°C° 0 mm 3 mps 754 mmHg 52%
    20:00 +26°C° 0 mm 3 mps 755 mmHg 55%
    21:00 +25°C° 0 mm 3 mps 755 mmHg 57%
    22:00 +24°C° 0 mm 3 mps 755 mmHg 58%
    23:00 +23°C° 0 mm 2 mps 755 mmHg 60%

    Day after tomorrow, 23 June, Sunday

    Time Temperature Precipitation Wind Pressure Humidity
    00:00 +23°C° 0 mm 2 mps 755 mmHg 61%
    01:00 +23°C° 0 mm 2 mps 755 mmHg 63%
    02:00 +21°C° 0 mm 2 mps 755 mmHg 64%
    03:00 +21°C° 0 mm 2 mps 755 mmHg 67%
    04:00 +21°C° 0 mm 2 mps 755 mmHg 69%
    05:00 +21°C° 0 mm 2 mps 755 mmHg 72%
    06:00 +22°C° 0 mm 3 mps 755 mmHg 67%
    07:00 +25°C° 0 mm 3 mps 755 mmHg 63%
    08:00 +27°C° 0 mm 3 mps 755 mmHg 58%
    09:00 +28°C° 0 mm 3 mps 755 mmHg 54%
    10:00 +30°C° 0 mm 4 mps 755 mmHg 50%
    11:00 +32°C° 0 mm 5 mps 755 mmHg 46%
    12:00 +32°C° 0 mm 5 mps 755 mmHg 46%
    13:00 +32°C° 0 mm 5 mps 755 mmHg 46%
    14:00 +33°C° 0 mm 5 mps 755 mmHg 46%
    15:00 +32°C° 0.1 mm 4 mps 754 mmHg 50%
    16:00 +30°C° 0.1 mm 4 mps 754 mmHg 53%
    17:00 +29°C° 0.1 mm 3 mps 754 mmHg 57%
    18:00 +27°C° 0.3 mm 2 mps 754 mmHg 61%
    19:00 +26°C° 0.3 mm 2 mps 754 mmHg 66%
    20:00 +24°C° 0.3 mm 1 mps 755 mmHg 70%
    21:00 +23°C° 0.2 mm 1 mps 755 mmHg 73%
    22:00 +23°C° 0.2 mm 2 mps 755 mmHg 76%
    23:00 +21°C° 0.2 mm 2 mps 755 mmHg 78%

    24 June, Monday

    Time Temperature Precipitation Wind Pressure Humidity
    00:00 +21°C° 0 mm 2 mps 755 mmHg 78%
    01:00 +20°C° 0 mm 2 mps 755 mmHg 77%
    02:00 +20°C° 0 mm 2 mps 755 mmHg 77%
    03:00 +20°C° 0 mm 2 mps 755 mmHg 77%
    04:00 +20°C° 0 mm 2 mps 755 mmHg 78%
    05:00 +20°C° 0 mm 2 mps 755 mmHg 78%
    06:00 +22°C° 0 mm 3 mps 756 mmHg 72%
    07:00 +25°C° 0 mm 3 mps 756 mmHg 66%
    08:00 +27°C° 0 mm 3 mps 756 mmHg 60%
    09:00 +29°C° 0 mm 3 mps 756 mmHg 55%
    10:00 +30°C° 0 mm 4 mps 756 mmHg 50%
    11:00 +32°C° 0 mm 4 mps 756 mmHg 45%
    12:00 +32°C° 0 mm 4 mps 756 mmHg 45%
    13:00 +33°C° 0 mm 4 mps 756 mmHg 44%
    14:00 +33°C° 0 mm 4 mps 756 mmHg 44%
    15:00 +33°C° 0 mm 5 mps 756 mmHg 47%
    16:00 +32°C° 0 mm 5 mps 756 mmHg 51%
    17:00 +30°C° 0 mm 5 mps 756 mmHg 54%
    18:00 +29°C° 0.3 mm 4 mps 756 mmHg 62%
    19:00 +27°C° 0.3 mm 4 mps 756 mmHg 69%
    20:00 +25°C° 0.3 mm 3 mps 756 mmHg 76%
    21:00 +24°C° 0 mm 3 mps 756 mmHg 78%
    22:00 +22°C° 0 mm 3 mps 757 mmHg 81%
    23:00 +22°C° 0 mm 3 mps 757 mmHg 84%

    25 June, Tuesday

    Time Temperature Precipitation Wind Pressure Humidity
    00:00 +21°C° 0 mm 3 mps 757 mmHg 87%
    01:00 +21°C° 0 mm 3 mps 757 mmHg 90%
    02:00 +20°C° 0 mm 4 mps 757 mmHg 93%
    03:00 +20°C° 0 mm 4 mps 758 mmHg 90%
    04:00 +20°C° 0 mm 4 mps 758 mmHg 87%
    05:00 +19°C° 0 mm 4 mps 758 mmHg 84%
    06:00 +21°C° 0 mm 4 mps 758 mmHg 79%
    07:00 +22°C° 0 mm 5 mps 758 mmHg 74%
    08:00 +23°C° 0 mm 5 mps 759 mmHg 69%
    09:00 +26°C° 0 mm 5 mps 759 mmHg 65%
    10:00 +27°C° 0 mm 5 mps 759 mmHg 61%
    11:00 +28°C° 0 mm 6 mps 759 mmHg 57%
    12:00 +29°C° 0 mm 6 mps 759 mmHg 55%
    13:00 +29°C° 0 mm 6 mps 758 mmHg 53%
    14:00 +30°C° 0 mm 6 mps 758 mmHg 51%
    15:00 +29°C° 0 mm 6 mps 758 mmHg 52%
    16:00 +29°C° 0 mm 5 mps 758 mmHg 52%
    17:00 +28°C° 0 mm 5 mps 758 mmHg 53%
    18:00 +26°C° 0 mm 5 mps 758 mmHg 59%
    19:00 +23°C° 0 mm 4 mps 758 mmHg 64%
    20:00 +21°C° 0 mm 4 mps 759 mmHg 69%
    21:00 +20°C° 0 mm 3 mps 759 mmHg 72%
    22:00 +19°C° 0 mm 3 mps 759 mmHg 75%
    23:00 +18°C° 0 mm 3 mps 759 mmHg 78%

    26 June, Wednesday

    Time Temperature Precipitation Wind Pressure Humidity
    00:00 +18°C° 0 mm 3 mps 759 mmHg 78%
    01:00 +17°C° 0 mm 3 mps 759 mmHg 79%
    02:00 +16°C° 0 mm 2 mps 758 mmHg 80%
    03:00 +16°C° 0 mm 2 mps 758 mmHg 79%
    04:00 +17°C° 0 mm 2 mps 758 mmHg 79%
    05:00 +17°C° 0 mm 2 mps 758 mmHg 78%
    06:00 +18°C° 0 mm 2 mps 758 mmHg 72%
    07:00 +20°C° 0 mm 2 mps 758 mmHg 65%
    08:00 +23°C° 0 mm 2 mps 758 mmHg 59%
    09:00 +24°C° 0 mm 2 mps 757 mmHg 55%
    10:00 +25°C° 0 mm 2 mps 757 mmHg 51%
    11:00 +26°C° 0 mm 2 mps 756 mmHg 47%
    12:00 +26°C° 0 mm 3 mps 756 mmHg 48%
    13:00 +26°C° 0 mm 3 mps 756 mmHg 50%
    14:00 +26°C° 0 mm 4 mps 755 mmHg 51%
    15:00 +26°C° 0 mm 4 mps 755 mmHg 52%
    16:00 +26°C° 0 mm 4 mps 755 mmHg 52%
    17:00 +26°C° 0 mm 5 mps 754 mmHg 52%
    18:00 +23°C° 0 mm 4 mps 754 mmHg 59%
    19:00 +21°C° 0 mm 3 mps 754 mmHg 66%
    20:00 +20°C° 0 mm 3 mps 754 mmHg 74%
    21:00 +19°C° 0 mm 3 mps 754 mmHg 75%
    22:00 +18°C° 0 mm 2 mps 754 mmHg 77%
    23:00 +17°C° 0 mm 2 mps 754 mmHg 78%
    Show more